Вернуться в каталог

COSMOS 2126

АктивенВоенныеLEO
NORAD 21101·PAYLOAD·🇷🇺 Russia

Запущен Feb 12, 1991 с Plesetsk Cosmodrome

Loading…

Ближайшие Пролёты (ближайшие 24 часа)

TLE

СвежийSource: Space-Track

Эпоха: Sep 14, 2026, 13:11 UTC

1 21101U 91009B   26257.54940522  .00000004  00000-0  13822-3 0  9990
2 21101  74.0331 327.1249 0019768 290.3648  69.5277 12.46068653618840

Отслеживайте COSMOS 2126 в реальном времени с AllMySat

Download on the App Store